Вернуться в каталог

DELTA 1 DEB

LostSSO
NORAD 42089·DEBRIS·🇺🇸 United States

Запущен Dec 15, 1968 с Vandenberg Space Force Base

Loading…

Ближайшие Пролёты (ближайшие 24 часа)

TLE

УстаревшееSource: Space-Track

Эпоха: Feb 20, 2024, 01:24 UTC

1 42089U 68114R   24051.05901893  .00000147  00000-0  15410-2 0  9995
2 42089 102.1649   1.8080 0153703 109.7817 251.9886 12.31162652418604

Отслеживайте DELTA 1 DEB в реальном времени с AllMySat

Download on the App Store